TimeEST,TemperatureF,Dew PointF,Humidity,Sea Level PressureIn,VisibilityMPH,Wind Direction,Wind SpeedMPH,Gust SpeedMPH,PrecipitationIn,Events,Conditions,WindDirDegrees,DateUTC
12:03 AM,21.9,16.0,78,30.02,1.8,NW,13.8,24.2,0.00,Snow,Light Snow,310,2013-01-18 05:03:00
12:15 AM,21.9,16.0,78,30.02,1.0,NW,19.6,25.3,0.00,Snow,Light Snow,310,2013-01-18 05:15:00
12:22 AM,21.0,15.1,78,30.03,2.0,NW,17.3,-,0.00,Snow,Light Snow,310,2013-01-18 05:22:00
12:34 AM,21.0,14.0,74,30.04,3.0,WNW,18.4,-,0.00,Snow,Light Snow,300,2013-01-18 05:34:00
12:48 AM,19.4,12.2,74,30.04,8.0,WNW,16.1,-,0.00,Snow,Light Snow,300,2013-01-18 05:48:00
12:53 AM,19.9,12.0,71,30.12,6.0,WNW,12.7,-,0.00,Snow,Light Snow,300,2013-01-18 05:53:00
1:29 AM,19.0,12.9,77,30.06,1.8,NNW,16.1,-,0.00,Snow,Light Snow,330,2013-01-18 06:29:00
1:53 AM,18.0,12.0,78,30.16,1.5,NW,13.8,-,0.00,Snow,Light Snow,310,2013-01-18 06:53:00
2:05 AM,18.0,12.0,78,30.09,3.0,NW,11.5,-,0.00,Snow,Light Snow,310,2013-01-18 07:05:00
2:15 AM,18.0,12.0,78,30.10,2.5,NW,13.8,-,0.00,Snow,Light Snow,310,2013-01-18 07:15:00
2:24 AM,18.0,10.9,74,30.10,4.0,WNW,12.7,-,0.00,Snow,Light Snow,300,2013-01-18 07:24:00
2:43 AM,18.0,10.9,74,30.12,1.8,NW,18.4,28.8,0.00,Snow,Light Snow,310,2013-01-18 07:43:00
2:53 AM,17.1,10.0,74,30.21,2.5,WNW,15.0,-,0.00,Snow,Light Snow,290,2013-01-18 07:53:00
2:58 AM,17.1,9.0,71,30.13,3.0,NW,17.3,25.3,0.00,Snow,Light Snow,310,2013-01-18 07:58:00
3:29 AM,17.1,8.1,68,30.14,2.0,WNW,19.6,25.3,0.00,Snow,Light Snow,300,2013-01-18 08:29:00
3:36 AM,16.0,8.1,71,30.14,2.0,West,15.0,25.3,0.00,Snow,Light Snow,280,2013-01-18 08:36:00
3:40 AM,16.0,7.0,68,30.15,3.0,West,12.7,-,0.00,Snow,Light Snow,280,2013-01-18 08:40:00
3:53 AM,16.0,6.1,65,30.24,4.0,WNW,17.3,25.3,0.00,Snow,Light Snow,290,2013-01-18 08:53:00
4:40 AM,15.1,7.0,70,30.17,4.0,West,11.5,23.0,0.00,Snow,Light Snow,280,2013-01-18 09:40:00
4:53 AM,15.1,6.1,68,30.25,5.0,West,16.1,25.3,0.00,Snow,Light Snow,280,2013-01-18 09:53:00
5:04 AM,15.1,6.1,68,30.18,9.0,WNW,12.7,-,0.00,,Overcast,290,2013-01-18 10:04:00
5:53 AM,14.0,5.0,67,30.30,10.0,WNW,11.5,-,0.00,,Overcast,290,2013-01-18 10:53:00
6:53 AM,14.0,6.1,71,30.35,6.0,NW,15.0,20.7,0.00,Snow,Light Snow,310,2013-01-18 11:53:00
7:53 AM,14.0,6.1,71,30.37,3.0,WNW,9.2,-,0.00,Snow,Light Snow,290,2013-01-18 12:53:00
8:10 AM,14.0,7.0,74,30.28,2.0,WNW,6.9,-,0.00,Snow,Light Snow,290,2013-01-18 13:10:00
8:17 AM,14.0,7.0,74,30.28,1.0,West,8.1,-,0.00,Snow,Light Snow,280,2013-01-18 13:17:00
8:28 AM,14.0,7.0,74,30.28,2.0,West,6.9,-,0.00,Snow,Light Snow,280,2013-01-18 13:28:00
8:39 AM,14.0,8.1,77,30.28,1.2,West,6.9,-,0.00,Snow,Light Snow,260,2013-01-18 13:39:00
8:53 AM,14.0,8.1,77,30.38,2.0,West,8.1,-,0.00,Snow,Light Snow,280,2013-01-18 13:53:00
8:59 AM,14.0,7.0,74,30.29,3.0,West,9.2,-,0.00,Snow,Light Snow,270,2013-01-18 13:59:00
9:53 AM,14.0,5.0,67,30.41,10.0,West,15.0,20.7,0.00,,Overcast,280,2013-01-18 14:53:00
10:53 AM,15.1,1.9,56,30.43,10.0,WNW,12.7,-,N/A,,Overcast,290,2013-01-18 15:53:00
11:53 AM,16.0,3.0,57,30.40,9.0,West,11.5,-,0.00,,Mostly Cloudy,280,2013-01-18 16:53:00
12:04 PM,17.1,3.0,54,30.30,10.0,West,11.5,18.4,N/A,,Partly Cloudy,270,2013-01-18 17:04:00
12:53 PM,19.0,3.9,52,30.37,10.0,West,9.2,17.3,N/A,,Clear,260,2013-01-18 17:53:00
1:53 PM,21.0,3.9,48,30.36,10.0,Variable,6.9,-,N/A,,Clear,0,2013-01-18 18:53:00
2:53 PM,21.9,3.0,44,30.34,10.0,Variable,5.8,-,N/A,,Clear,0,2013-01-18 19:53:00
3:53 PM,23.0,5.0,46,30.32,10.0,SW,10.4,-,N/A,,Overcast,230,2013-01-18 20:53:00
4:53 PM,21.9,5.0,48,30.32,10.0,SSW,8.1,-,N/A,,Clear,200,2013-01-18 21:53:00
5:53 PM,21.0,7.0,55,30.31,10.0,South,10.4,19.6,N/A,,Clear,190,2013-01-18 22:53:00
6:53 PM,21.0,8.1,57,30.30,10.0,South,8.1,-,N/A,,Clear,190,2013-01-18 23:53:00
7:53 PM,21.0,9.0,60,30.29,10.0,South,9.2,17.3,N/A,,Mostly Cloudy,190,2013-01-19 00:53:00
8:53 PM,21.9,10.0,60,30.26,10.0,SSW,10.4,21.9,N/A,,Clear,200,2013-01-19 01:53:00
9:53 PM,24.1,10.0,55,30.24,10.0,SSW,13.8,24.2,N/A,,Mostly Cloudy,200,2013-01-19 02:53:00
10:53 PM,26.1,8.1,47,30.20,10.0,South,13.8,20.7,N/A,,Mostly Cloudy,190,2013-01-19 03:53:00
11:53 PM,27.0,7.0,43,30.18,10.0,South,11.5,21.9,N/A,,Overcast,190,2013-01-19 04:53:00